EN

Hourly Weather Bolshie Ryabinki

Today, 20 October, Tuesday

Time Temperature Precipitation Wind Pressure Humidity
00:00 +1°C° 0 mm 5 mps 744 mmHg 80%
01:00 +1°C° 0 mm 5 mps 744 mmHg 81%
02:00 +1°C° 0 mm 5 mps 744 mmHg 82%
03:00 0°C° 0 mm 5 mps 744 mmHg 83%
04:00 0°C° 0 mm 5 mps 744 mmHg 85%
05:00 0°C° 0 mm 5 mps 744 mmHg 86%
06:00 0°C° 0 mm 5 mps 744 mmHg 85%
07:00 +1°C° 0 mm 6 mps 744 mmHg 83%
08:00 +1°C° 0 mm 6 mps 744 mmHg 81%
09:00 +2°C° 0 mm 7 mps 744 mmHg 75%
10:00 +3°C° 0 mm 7 mps 744 mmHg 70%
11:00 +4°C° 0 mm 7 mps 744 mmHg 64%
12:00 +4°C° 0.1 mm 7 mps 744 mmHg 65%
13:00 +4°C° 0.1 mm 7 mps 745 mmHg 65%
14:00 +4°C° 0.1 mm 7 mps 745 mmHg 65%
15:00 +3°C° 0.1 mm 7 mps 745 mmHg 67%
16:00 +3°C° 0.1 mm 6 mps 745 mmHg 69%
17:00 +2°C° 0.1 mm 6 mps 746 mmHg 71%
18:00 +1°C° 0 mm 5 mps 746 mmHg 73%
19:00 +1°C° 0 mm 5 mps 747 mmHg 76%
20:00 0°C° 0 mm 4 mps 748 mmHg 78%
21:00 -1°C° 0 mm 4 mps 748 mmHg 81%
22:00 0°C° 0 mm 3 mps 748 mmHg 84%
23:00 -1°C° 0 mm 3 mps 748 mmHg 87%

Tomorrow, 21 October, Wednesday

Time Temperature Precipitation Wind Pressure Humidity
00:00 -1°C° 0 mm 3 mps 749 mmHg 88%
01:00 -1°C° 0 mm 3 mps 749 mmHg 89%
02:00 -1°C° 0 mm 3 mps 749 mmHg 90%
03:00 -1°C° 0 mm 3 mps 749 mmHg 88%
04:00 -1°C° 0 mm 3 mps 749 mmHg 87%
05:00 -1°C° 0 mm 2 mps 749 mmHg 86%
06:00 0°C° 0 mm 3 mps 749 mmHg 83%
07:00 +1°C° 0 mm 3 mps 749 mmHg 80%
08:00 +1°C° 0 mm 3 mps 749 mmHg 77%
09:00 +2°C° 0 mm 3 mps 749 mmHg 73%
10:00 +3°C° 0 mm 3 mps 749 mmHg 70%
11:00 +4°C° 0 mm 4 mps 749 mmHg 67%
12:00 +4°C° 0 mm 3 mps 748 mmHg 68%
13:00 +5°C° 0 mm 3 mps 748 mmHg 70%
14:00 +5°C° 0 mm 3 mps 748 mmHg 71%
15:00 +4°C° 0.4 mm 3 mps 747 mmHg 77%
16:00 +4°C° 0.4 mm 3 mps 747 mmHg 82%
17:00 +4°C° 0.4 mm 3 mps 746 mmHg 88%
18:00 +4°C° 0.2 mm 3 mps 746 mmHg 89%
19:00 +4°C° 0.2 mm 3 mps 746 mmHg 91%
20:00 +4°C° 0.2 mm 3 mps 745 mmHg 92%
21:00 +4°C° 0.1 mm 3 mps 745 mmHg 93%
22:00 +5°C° 0.1 mm 3 mps 745 mmHg 94%
23:00 +5°C° 0.1 mm 3 mps 745 mmHg 95%

Day after tomorrow, 22 October, Thursday

Time Temperature Precipitation Wind Pressure Humidity
00:00 +6°C° 0 mm 2 mps 744 mmHg 96%
01:00 +6°C° 0 mm 2 mps 744 mmHg 96%
02:00 +7°C° 0 mm 1 mps 744 mmHg 97%
03:00 +7°C° 0 mm 1 mps 744 mmHg 97%
04:00 +6°C° 0 mm 2 mps 744 mmHg 97%
05:00 +6°C° 0 mm 2 mps 744 mmHg 96%
06:00 +6°C° 0 mm 2 mps 744 mmHg 95%
07:00 +6°C° 0 mm 2 mps 744 mmHg 94%
08:00 +7°C° 0 mm 2 mps 744 mmHg 93%
09:00 +7°C° 0 mm 3 mps 744 mmHg 90%
10:00 +8°C° 0 mm 3 mps 744 mmHg 87%
11:00 +9°C° 0 mm 3 mps 743 mmHg 84%
12:00 +8°C° 0.2 mm 3 mps 743 mmHg 87%
13:00 +7°C° 0.2 mm 4 mps 743 mmHg 89%
14:00 +7°C° 0.2 mm 4 mps 742 mmHg 92%
15:00 +8°C° 0 mm 3 mps 742 mmHg 91%
16:00 +8°C° 0 mm 3 mps 742 mmHg 89%
17:00 +8°C° 0 mm 3 mps 742 mmHg 88%
18:00 +8°C° 0 mm 3 mps 742 mmHg 88%
19:00 +7°C° 0 mm 4 mps 742 mmHg 89%
20:00 +7°C° 0 mm 4 mps 742 mmHg 89%
21:00 +7°C° 0 mm 4 mps 742 mmHg 91%
22:00 +7°C° 0 mm 4 mps 742 mmHg 92%
23:00 +8°C° 0 mm 3 mps 742 mmHg 94%

23 October, Friday

Time Temperature Precipitation Wind Pressure Humidity
00:00 +8°C° 0 mm 3 mps 743 mmHg 95%
01:00 +8°C° 0 mm 3 mps 743 mmHg 95%
02:00 +8°C° 0 mm 3 mps 743 mmHg 95%
03:00 +8°C° 0 mm 3 mps 743 mmHg 96%
04:00 +7°C° 0 mm 3 mps 743 mmHg 96%
05:00 +7°C° 0 mm 3 mps 743 mmHg 96%
06:00 +8°C° 0 mm 3 mps 743 mmHg 95%
07:00 +8°C° 0 mm 3 mps 743 mmHg 93%
08:00 +8°C° 0 mm 4 mps 743 mmHg 91%
09:00 +10°C° 0 mm 4 mps 743 mmHg 87%
10:00 +11°C° 0 mm 4 mps 743 mmHg 83%
11:00 +12°C° 0 mm 5 mps 743 mmHg 79%
12:00 +13°C° 0 mm 5 mps 743 mmHg 77%
13:00 +13°C° 0 mm 5 mps 742 mmHg 76%
14:00 +14°C° 0 mm 5 mps 742 mmHg 75%
15:00 +13°C° 0 mm 5 mps 741 mmHg 77%
16:00 +13°C° 0 mm 5 mps 741 mmHg 80%
17:00 +12°C° 0 mm 4 mps 741 mmHg 83%
18:00 +12°C° 0 mm 4 mps 740 mmHg 83%
19:00 +12°C° 0 mm 4 mps 740 mmHg 83%
20:00 +12°C° 0 mm 4 mps 740 mmHg 83%
21:00 +11°C° 0 mm 4 mps 740 mmHg 84%
22:00 +11°C° 0 mm 4 mps 739 mmHg 85%
23:00 +11°C° 0 mm 4 mps 739 mmHg 87%

24 October, Saturday

Time Temperature Precipitation Wind Pressure Humidity
00:00 +10°C° 0 mm 4 mps 739 mmHg 88%
01:00 +10°C° 0 mm 4 mps 738 mmHg 89%
02:00 +9°C° 0 mm 3 mps 738 mmHg 91%
03:00 +9°C° 0 mm 3 mps 738 mmHg 92%
04:00 +8°C° 0 mm 3 mps 738 mmHg 94%
05:00 +8°C° 0 mm 3 mps 738 mmHg 95%
06:00 +8°C° 0 mm 3 mps 738 mmHg 94%
07:00 +9°C° 0 mm 3 mps 739 mmHg 94%
08:00 +9°C° 0 mm 3 mps 739 mmHg 93%
09:00 +10°C° 0 mm 3 mps 739 mmHg 88%
10:00 +11°C° 0 mm 3 mps 739 mmHg 84%
11:00 +12°C° 0 mm 3 mps 740 mmHg 80%
12:00 +13°C° 0 mm 2 mps 740 mmHg 78%
13:00 +13°C° 0 mm 2 mps 740 mmHg 76%
14:00 +13°C° 0 mm 2 mps 740 mmHg 75%
15:00 +13°C° 0 mm 2 mps 740 mmHg 78%
16:00 +12°C° 0 mm 1 mps 740 mmHg 82%
17:00 +11°C° 0 mm 1 mps 740 mmHg 86%
18:00 +11°C° 0.1 mm 1 mps 740 mmHg 87%
19:00 +10°C° 0.1 mm 0 mps 740 mmHg 88%
20:00 +10°C° 0.1 mm 0 mps 741 mmHg 89%
21:00 +10°C° 0.1 mm 0 mps 741 mmHg 90%
22:00 +11°C° 0.1 mm 1 mps 741 mmHg 91%
23:00 +11°C° 0.1 mm 1 mps 741 mmHg 92%

25 October, Sunday

Time Temperature Precipitation Wind Pressure Humidity
00:00 +11°C° 0.1 mm 1 mps 741 mmHg 93%
01:00 +11°C° 0.1 mm 1 mps 740 mmHg 94%
02:00 +10°C° 0.1 mm 2 mps 740 mmHg 95%
03:00 +10°C° 0.2 mm 2 mps 740 mmHg 96%
04:00 +10°C° 0.2 mm 2 mps 740 mmHg 96%
05:00 +10°C° 0.2 mm 2 mps 740 mmHg 97%
06:00 +10°C° 0.1 mm 2 mps 740 mmHg 96%
07:00 +10°C° 0.1 mm 2 mps 740 mmHg 96%
08:00 +10°C° 0.1 mm 2 mps 740 mmHg 95%
09:00 +10°C° 0.2 mm 2 mps 740 mmHg 95%
10:00 +11°C° 0.2 mm 1 mps 740 mmHg 95%
11:00 +11°C° 0.2 mm 1 mps 741 mmHg 95%
12:00 +11°C° 0.1 mm 1 mps 741 mmHg 95%
13:00 +11°C° 0.1 mm 1 mps 741 mmHg 95%
14:00 +11°C° 0.1 mm 1 mps 741 mmHg 95%
15:00 +11°C° 0.1 mm 1 mps 741 mmHg 96%
16:00 +11°C° 0.1 mm 1 mps 741 mmHg 96%
17:00 +11°C° 0.1 mm 1 mps 741 mmHg 97%
18:00 +11°C° 0.1 mm 1 mps 742 mmHg 97%
19:00 +11°C° 0.1 mm 1 mps 742 mmHg 97%
20:00 +11°C° 0.1 mm 1 mps 742 mmHg 97%
21:00 +9°C° 0 mm 2 mps 743 mmHg 96%
22:00 +9°C° 0 mm 2 mps 743 mmHg 96%
23:00 +9°C° 0 mm 2 mps 743 mmHg 95%

26 October, Monday

Time Temperature Precipitation Wind Pressure Humidity
00:00 +9°C° 0.1 mm 3 mps 743 mmHg 95%
01:00 +9°C° 0.1 mm 3 mps 744 mmHg 94%
02:00 +8°C° 0.1 mm 3 mps 744 mmHg 93%
03:00 +7°C° 0 mm 4 mps 744 mmHg 93%
04:00 +7°C° 0 mm 4 mps 744 mmHg 92%
05:00 +7°C° 0 mm 4 mps 745 mmHg 91%
06:00 +7°C° 0 mm 4 mps 745 mmHg 89%
07:00 +6°C° 0 mm 4 mps 746 mmHg 87%
08:00 +6°C° 0 mm 5 mps 746 mmHg 85%
09:00 +7°C° 0 mm 4 mps 746 mmHg 82%
10:00 +7°C° 0 mm 4 mps 747 mmHg 79%
11:00 +7°C° 0 mm 4 mps 747 mmHg 76%
12:00 +8°C° 0 mm 4 mps 747 mmHg 73%
13:00 +8°C° 0 mm 5 mps 747 mmHg 69%
14:00 +8°C° 0 mm 5 mps 747 mmHg 65%
15:00 +7°C° 0 mm 4 mps 747 mmHg 69%
16:00 +6°C° 0 mm 4 mps 748 mmHg 73%
17:00 +5°C° 0 mm 4 mps 748 mmHg 76%
18:00 +4°C° 0 mm 4 mps 748 mmHg 76%
19:00 +4°C° 0 mm 4 mps 749 mmHg 76%
20:00 +3°C° 0 mm 4 mps 749 mmHg 77%
21:00 +3°C° 0 mm 4 mps 749 mmHg 78%
22:00 +3°C° 0 mm 4 mps 749 mmHg 79%
23:00 +1°C° 0 mm 4 mps 749 mmHg 80%
Show more